Weather History for St. Cloud, MN

Change the Weather History Date:

Thursday, May 2, 2013

  Actual Average Record
Temperature  
Mean Temperature 38 °F 52 °F  
Max Temperature 45 °F 65 °F 94 °F (1959)
Min Temperature 30 °F 40 °F 21 °F (1967)
Degree Days  
Heating Degree Days 27 13  
Month to date heating degree days 50 27  
Since 1 July heating degree days 8504 8194  
Cooling Degree Days 0 0  
Month to date cooling degree days 0 0  
Year to date cooling degree days 0 2  
Moisture  
Dew Point 23 °F    
Average Humidity 56    
Maximum Humidity 70    
Minimum Humidity 41    
Precipitation  
Precipitation 0.00 in 0.09 in 0.87 in (2008)
Month to date precipitation 0.00 0.19  
Year to date precipitation 7.31 5.55  
Snow  
Snow 0.00 in 0.00 in 0.70 in (1954)
Month to date snowfall 0.0 0.0  
Since 1 July snowfall 78.5 45.7  
Snow Depth 0.00 in    
Sea Level Pressure  
Sea Level Pressure 30.57 in    
Wind  
Wind Speed 12 mph (North)    
Max Wind Speed 22 mph    
Max Gust Speed 30 mph    
Visibility 10 miles    
Events      
T = Trace of Precipitation, MM = Missing Value Source: NWS Daily Summary

Daily Weather History Graph

Daily Weather History Graph

Search for Another Location

Airport:

Trip Planner

Search our weather history database for the weather conditions in past years. The results will help you decide how hot, cold, wet, or windy it might be!

Date:

Astronomy

May. 02, 2013 Rise Set
Actual Time 6:02 AM CDT 8:24 PM CDT
Civil Twilight 5:29 AM CDT 8:57 PM CDT
Nautical Twilight 4:48 AM CDT 9:39 PM CDT
Astronomical Twilight 4:02 AM CDT 10:25 PM CDT
Moon 2:12 AM CDT (5/2) 12:54 PM CDT (5/2)
Length of Visible Light 15h 28m
Length of Day
14h 22m
Waning Gibbous, 47% of the Moon is Illuminated
May 2
Waning Gibbous
May 9
New
May 17
First Quarter
May 24
Full
May 31
Last Quarter

Hourly Weather History & Observations

Time (CDT) Temp. Windchill Dew Point Humidity Pressure Visibility Wind Dir Wind Speed Gust Speed Precip Events Conditions
12:53 AM 36.0 °F 27.1 °F 26.1 °F 67% 30.57 in 10.0 mi North 13.8 mph 24.2 mph N/A   Clear
1:53 AM 35.1 °F 25.5 °F 26.1 °F 70% 30.58 in 10.0 mi North 15.0 mph 18.4 mph N/A   Clear
2:53 AM 34.0 °F 25.0 °F 25.0 °F 70% 30.60 in 10.0 mi North 12.7 mph 19.6 mph N/A   Clear
3:53 AM 33.1 °F 24.4 °F 24.1 °F 70% 30.60 in 10.0 mi North 11.5 mph - N/A   Clear
4:53 AM 33.1 °F 23.9 °F 23.0 °F 66% 30.60 in 10.0 mi North 12.7 mph 20.7 mph N/A   Clear
5:53 AM 32.0 °F 24.2 °F 21.9 °F 66% 30.59 in 10.0 mi North 9.2 mph 17.3 mph N/A   Clear
6:53 AM 32.0 °F 23.6 °F 21.0 °F 64% 30.61 in 10.0 mi NNW 10.4 mph - N/A   Clear
7:53 AM 32.0 °F 21.6 °F 23.0 °F 69% 30.62 in 10.0 mi North 15.0 mph 20.7 mph N/A   Clear
8:53 AM 34.0 °F 24.2 °F 23.0 °F 64% 30.62 in 10.0 mi North 15.0 mph 20.7 mph N/A   Clear
9:53 AM 36.0 °F 27.5 °F 23.0 °F 59% 30.63 in 10.0 mi North 12.7 mph - N/A   Clear
10:53 AM 37.9 °F 30.5 °F 21.0 °F 51% 30.63 in 10.0 mi North 11.5 mph 20.7 mph N/A   Clear
11:53 AM 41.0 °F 32.8 °F 21.0 °F 45% 30.60 in 10.0 mi North 16.1 mph 24.2 mph N/A   Clear
12:53 PM 43.0 °F 35.4 °F 21.9 °F 43% 30.59 in 10.0 mi North 16.1 mph 23.0 mph N/A   Unknown
1:53 PM 44.1 °F 36.2 °F 23.0 °F 43% 30.57 in 10.0 mi North 18.4 mph 24.2 mph N/A   Scattered Clouds
2:53 PM 43.0 °F 35.7 °F 21.9 °F 43% 30.56 in 10.0 mi North 15.0 mph 29.9 mph N/A   Clear
3:53 PM 42.1 °F 34.5 °F 21.0 °F 43% 30.56 in 10.0 mi North 15.0 mph 25.3 mph N/A   Clear
4:53 PM 42.1 °F 33.6 °F 21.0 °F 43% 30.54 in 10.0 mi North 18.4 mph 26.5 mph N/A   Clear
5:53 PM 43.0 °F 36.4 °F 21.9 °F 43% 30.53 in 10.0 mi North 12.7 mph 19.6 mph N/A   Clear
6:53 PM 41.0 °F 34.7 °F 21.9 °F 47% 30.52 in 10.0 mi North 10.4 mph 19.6 mph N/A   Clear
7:53 PM 39.0 °F 32.8 °F 21.9 °F 50% 30.53 in 10.0 mi NE 9.2 mph - N/A   Scattered Clouds
8:53 PM 36.0 °F 30.3 °F 21.9 °F 57% 30.53 in 10.0 mi NNE 6.9 mph - N/A   Clear
9:53 PM 33.1 °F 28.7 °F 23.0 °F 66% 30.54 in 10.0 mi North 4.6 mph - N/A   Clear
10:53 PM 32.0 °F 25.6 °F 23.0 °F 69% 30.54 in 10.0 mi NNW 6.9 mph - N/A   Clear
11:53 PM 30.9 °F 24.3 °F 21.9 °F 69% 30.52 in 10.0 mi North 6.9 mph - N/A   Clear